This is the latest recevied weather packets stored in our database for station/object SV9TNF-2. If no packets are shown the sender has not sent any weather packets the latest 10 day(s).
| Time | Temp. | Humidity | Pressure | Rain* | Wind** | Luminosity | Snow |
|---|---|---|---|---|---|---|---|
| 1777869914 | 15.56° C | 59% | 1024.7 hPa | 0 mm | 10.28 m/s, 109° | - | - |
| 1777869614 | 15° C | 58% | 1024.7 hPa | 0 mm | 16.09 m/s, 1° | - | - |
| 1777869314 | 15.56° C | 61% | 1024.7 hPa | 0 mm | 8.94 m/s, 22° | - | - |
| 1777869014 | 15° C | 58% | 1024.7 hPa | 0 mm | 8.94 m/s, 10° | - | - |
| 1777868714 | 15° C | 57% | 1024.7 hPa | 0 mm | 12.52 m/s, 18° | - | - |
| 1777868414 | 15° C | 59% | 1024.7 hPa | 0 mm | 12.52 m/s, 50° | - | - |
| 1777868114 | 15° C | 61% | 1024.7 hPa | 0 mm | 16.54 m/s, 355° | - | - |
| 1777867814 | 15° C | 58% | 1024.7 hPa | 0 mm | 16.99 m/s, 38° | - | - |
| 1777867513 | 15° C | 59% | 1024.7 hPa | 0 mm | 12.96 m/s, 243° | - | - |
| 1777867214 | 15° C | 60% | 1024.4 hPa | 0 mm | 14.31 m/s, 165° | - | - |
| 1777866913 | 15° C | 57% | 1024.4 hPa | 0 mm | 8.05 m/s, 63° | - | - |
| 1777866613 | 15° C | 59% | 1024.4 hPa | 0 mm | 12.07 m/s, 26° | - | - |
| 1777866313 | 15° C | 59% | 1024.4 hPa | 0 mm | 7.15 m/s, 57° | - | - |
| 1777866013 | 15° C | 63% | 1024.4 hPa | 0 mm | 6.71 m/s, 15° | - | - |
| 1777865713 | 15° C | 61% | 1024.4 hPa | 0 mm | 20.56 m/s, 319° | - | - |
| 1777865413 | 15° C | 59% | 1024.4 hPa | 0 mm | 15.2 m/s, 311° | - | - |
| 1777865113 | 15° C | 59% | 1023.7 hPa | 0 mm | 20.12 m/s, 14° | - | - |
| 1777864813 | 15° C | 61% | 1023.7 hPa | 0 mm | 14.75 m/s, 10° | - | - |
| 1777864512 | 14.44° C | 59% | 1023.7 hPa | 0 mm | 12.07 m/s, 10° | - | - |
| 1777864213 | 15° C | 60% | 1023.7 hPa | 0 mm | 11.18 m/s, 29° | - | - |
| 1777863912 | 14.44° C | 60% | 1023.7 hPa | 0 mm | 8.49 m/s, 353° | - | - |
| 1777863612 | 14.44° C | 59% | 1023.7 hPa | 0 mm | 15.2 m/s, 6° | - | - |
| 1777863312 | 15° C | 60% | 1023.7 hPa | 0 mm | 7.15 m/s, 62° | - | - |
| 1777863012 | 14.44° C | 59% | 1023.7 hPa | 0 mm | 7.6 m/s, 357° | - | - |
| 1777862712 | 15° C | 61% | 1023.7 hPa | 0 mm | 7.6 m/s, 33° | - | - |
* Rain latest hour (hover to see other rain measurements)
** Current wind speed in m/s (hover to see current wind gust speed)